(321867) = 2010 RV164

Discovered at Mount Lemmon on 2007-11-08 by Mt. Lemmon Survey.

Orbit

Orbit type: Main Belt

Note: WebGL enabled browser required.

epoch2023-09-13.0
epoch JD2460200.5
perihelion date2020-12-12.89774
perihelion JD2459196.39774
argument of perihelion (°)218.77541
ascending node (°)203.11200
inclination (°)7.74104
eccentricity0.0855521
perihelion distance (AU)2.0190604
Tisserand w.r.t. Jupiter3.6
ΔV w.r.t. Earth (km/sec)9.1
semimajor axis (AU)2.2079556
mean anomaly (°)301.64511
mean daily motion (°/day)0.30041270
aphelion distance (AU)2.397
period (years)3.28
P-vector [x]0.47344596
P-vector [y]0.83797947
P-vector [z]0.27136567
Q-vector [x]-0.87923459
Q-vector [y]0.46809817
Q-vector [z]0.08849094
absolute magnitude17.3
phase slope0.15
uncertainty0
referenceMPEC 2023-W133
observations used489
oppositions12
arc length (days)7446
first opposition used2003
last opposition used2023
residual rms (arc-secs)0.70
perturbers coarse indicatorM-v
perturbers precise indicator003Ek
first observation date used2003-07-08.0
last observation date used2023-11-26.0
computer nameMPCLINUX
JD of orbit computation2456612.507886
perihelion JD uncertainty (days)1.1331E-04
argument of perihelion uncertainty (°)4.0676E-05
ascending node uncertainty (°)2.5159E-05
inclination uncertainty (°)4.9935E-06
eccentricity uncertainty 4.0284E-08
perihelion distance uncertainty (AU)9.2562E-08
Minimum Orbit Intersection Distances (in AU)
for orbit epoch: 2460200.5, reference: E2023-WD3
Mercury1.70836
Venus1.29927
Earth1.03556
Mars0.53307
Jupiter2.84464
Saturn7.0249
Uranus16.1869
Neptune27.7788

Observations

500 total observations over interval: 2003 07 08.39094 – 2023 11 26.242285
These data are available for download (format description).

Date (UT) J2000 RA J2000 Dec Magn Location Ref
2003 07 08.39094 20 43 36.16 -04 33 59.3 20.9 V 691 – Steward Observatory, Kitt Peak-Spacewatch MPS 351537
2003 07 08.41364 20 43 35.12 -04 33 59.5 21.0 V 691 – Steward Observatory, Kitt Peak-Spacewatch MPS 351537
2003 07 08.43830 20 43 33.99 -04 33 59.8 20.8 V 691 – Steward Observatory, Kitt Peak-Spacewatch MPS 351537
2003 07 24.31672 20 29 42.97 -05 02 34.0 19.7   644 – Palomar Mountain/NEAT MPS 351537
2003 07 24.33876 20 29 41.60 -05 02 38.4 19.5   644 – Palomar Mountain/NEAT MPS 351537
2003 07 24.36034 20 29 40.29 -05 02 42.8 19.8   644 – Palomar Mountain/NEAT MPS 351537
2007 11 08.41484 05 30 20.37 +14 02 54.0 19.3 V G96 – Mt. Lemmon Survey MPS 351537
2007 11 08.41993 05 30 20.23 +14 02 51.7 19.4 V G96 – Mt. Lemmon Survey MPS 351537
2007 11 08.42491 05 30 20.12 +14 02 49.5 19.3 V G96 – Mt. Lemmon Survey MPS 351537
2007 11 08.42985 05 30 19.98 +14 02 47.4 19.3 V G96 – Mt. Lemmon Survey MPS 351537
2007 12 05.32854 05 09 02.01 +11 05 08.9 19.0 V 703 – Catalina Sky Survey MPS 351537
2007 12 05.33578 05 09 01.58 +11 05 07.5 19.2 V 703 – Catalina Sky Survey MPS 351537
2007 12 05.34295 05 09 01.08 +11 05 04.8 19.3 V 703 – Catalina Sky Survey MPS 351537
2007 12 05.35020 05 09 00.50 +11 05 03.2 19.1 V 703 – Catalina Sky Survey MPS 351537
2009 04 18.40146 15 47 19.60 -14 55 58.6 20.3 V G96 – Mt. Lemmon Survey MPS 351537
2009 04 18.40825 15 47 19.32 -14 55 56.0 20.4 V G96 – Mt. Lemmon Survey MPS 351537
2009 04 18.41513 15 47 19.03 -14 55 53.5 20.8 V G96 – Mt. Lemmon Survey MPS 351537
2009 04 18.42193 15 47 18.78 -14 55 50.8 20.7 V G96 – Mt. Lemmon Survey MPS 351537
2009 05 03.39212 15 35 13.44 -13 10 39.9   291 – LPL/Spacewatch II MPS 351537
2009 05 03.39598 15 35 13.22 -13 10 38.4   291 – LPL/Spacewatch II MPS 351537
2009 05 03.39971 15 35 13.00 -13 10 36.7   291 – LPL/Spacewatch II MPS 351537
2009 06 14.22215 14 59 39.27 -09 17 45.6   291 – LPL/Spacewatch II MPS 351537
2009 06 14.22589 14 59 39.14 -09 17 45.1   291 – LPL/Spacewatch II MPS 351537
2009 06 14.22962 14 59 39.02 -09 17 44.8   291 – LPL/Spacewatch II MPS 351537
2010 09 08.36394 01 36 50.96 +13 41 06.4 20.2 V 691 – Steward Observatory, Kitt Peak-Spacewatch MPS 348302
2010 09 08.38163 01 36 50.74 +13 41 02.3 20.0 V 691 – Steward Observatory, Kitt Peak-Spacewatch MPS 348302
2010 09 08.39932 01 36 50.57 +13 40 58.2 20.1 V 691 – Steward Observatory, Kitt Peak-Spacewatch MPS 348302
2010 09 16.37331 01 34 47.70 +12 59 07.8 20.1 V 691 – Steward Observatory, Kitt Peak-Spacewatch MPS 348302
2010 09 16.39100 01 34 47.25 +12 59 01.2 20.2 V 691 – Steward Observatory, Kitt Peak-Spacewatch MPS 348302
2010 09 16.40869 01 34 46.88 +12 58 54.2 21.4 V 691 – Steward Observatory, Kitt Peak-Spacewatch MPS 348302
2010 10 03.41063 01 24 29.50 +10 37 43.9 19.6 V 691 – Steward Observatory, Kitt Peak-Spacewatch MPS 349635
2010 10 03.42091 01 24 28.96 +10 37 38.8 19.5 V 691 – Steward Observatory, Kitt Peak-Spacewatch MPS 349635
2010 10 03.43119 01 24 28.48 +10 37 31.3 19.5 V 691 – Steward Observatory, Kitt Peak-Spacewatch MPS 349635
2010 10 05.99493 01 22 24.51 +10 11 15.2 19.0 V J75 – OAM Observatory, La Sagra MPS 349635
2010 10 06.00785 01 22 23.85 +10 11 06.9 19.0 V J75 – OAM Observatory, La Sagra MPS 349635
2010 10 06.02076 01 22 23.11 +10 10 58.9 19.1 V J75 – OAM Observatory, La Sagra MPS 349635
2010 10 08.22977 01 20 32.27 +09 47 38.9 19.3   704 – Lincoln Laboratory ETS, New Mexico MPS 351537
2010 10 08.24310 01 20 31.59 +09 47 30.9 19.2   704 – Lincoln Laboratory ETS, New Mexico MPS 351537
2010 10 08.25802 01 20 30.84 +09 47 21.6 19.3   704 – Lincoln Laboratory ETS, New Mexico MPS 351537
2010 10 08.27218 01 20 30.17 +09 47 12.8 19.7   704 – Lincoln Laboratory ETS, New Mexico MPS 351537
2010 10 08.28567 01 20 29.28 +09 47 03.8 20.1   704 – Lincoln Laboratory ETS, New Mexico MPS 351537
2010 10 09.35382 01 19 34.42 +09 35 35.2 19.3 V G96 – Mt. Lemmon Survey MPS 351537
2010 10 09.36065 01 19 34.06 +09 35 30.8 19.3 V G96 – Mt. Lemmon Survey MPS 351537
2010 10 09.36758 01 19 33.70 +09 35 26.3 19.3 V G96 – Mt. Lemmon Survey MPS 351537
2010 10 09.37451 01 19 33.31 +09 35 21.9 19.3 V G96 – Mt. Lemmon Survey MPS 351537
2010 10 09.37697 01 19 33.16 +09 35 20.6 19.4 V 691 – Steward Observatory, Kitt Peak-Spacewatch MPS 351537
2010 10 09.39469 01 19 32.21 +09 35 09.0 19.4 V 691 – Steward Observatory, Kitt Peak-Spacewatch MPS 351537
2010 10 09.41244 01 19 31.24 +09 34 57.5 19.4 V 691 – Steward Observatory, Kitt Peak-Spacewatch MPS 351537
2010 11 03.13529 01 00 00.10 +05 14 35.3 19.9 V 703 – Catalina Sky Survey MPS 355566
2010 11 03.14036 00 59 59.78 +05 14 31.9 21.1 V 703 – Catalina Sky Survey MPS 355566
2010 11 03.14549 00 59 59.64 +05 14 29.9 20.2 V 703 – Catalina Sky Survey MPS 355566
2010 11 03.15066 00 59 59.38 +05 14 28.6 19.2 V 703 – Catalina Sky Survey MPS 355566
2010 11 03.24935 00 59 55.72 +05 13 33.3 19.6   704 – Lincoln Laboratory ETS, New Mexico MPS 353920
2010 11 03.26194 00 59 55.22 +05 13 27.7 19.9   704 – Lincoln Laboratory ETS, New Mexico MPS 353920
2010 11 03.27440 00 59 54.81 +05 13 21.2 20.1   704 – Lincoln Laboratory ETS, New Mexico MPS 353920
2010 11 03.28685 00 59 54.33 +05 13 14.2 19.8   704 – Lincoln Laboratory ETS, New Mexico MPS 353920
2010 11 03.29932 00 59 53.91 +05 13 08.6 19.7   704 – Lincoln Laboratory ETS, New Mexico MPS 353920
2010 11 03.76988 00 59 38.10 +05 08 54.2 19.3 V J75 – OAM Observatory, La Sagra MPS 353920
2010 11 03.78282 00 59 37.72 +05 08 48.1 19.7 V J75 – OAM Observatory, La Sagra MPS 353920
2010 11 03.79600 00 59 37.23 +05 08 41.0 19.7 V J75 – OAM Observatory, La Sagra MPS 353920
2010 11 05.20417 00 58 50.52 +04 56 27.7 19.7 V G96 – Mt. Lemmon Survey MPS 355566
2010 11 05.21118 00 58 50.30 +04 56 24.0 19.8 V G96 – Mt. Lemmon Survey MPS 355566
2010 11 05.22510 00 58 49.80 +04 56 17.1 19.8 V G96 – Mt. Lemmon Survey MPS 355566
2012 01 05.62566 12 55 14.129 -10 48 20.22 21.8 w F51 – Pan-STARRS 1, Haleakala MPS 406005
2012 01 05.62982 12 55 14.385 -10 48 21.70 21.9 w F51 – Pan-STARRS 1, Haleakala MPS 406005
2012 01 05.63396 12 55 14.653 -10 48 23.26 21.7 w F51 – Pan-STARRS 1, Haleakala MPS 406005
2012 01 05.63810 12 55 14.916 -10 48 24.99 21.8 w F51 – Pan-STARRS 1, Haleakala MPS 406005
2012 02 26.40943 13 22 23.59 -12 34 53.0 20.6 V G96 – Mt. Lemmon Survey MPS 414283
2012 02 26.41581 13 22 23.52 -12 34 51.6 20.8 V G96 – Mt. Lemmon Survey MPS 414283
2012 02 26.42212 13 22 23.41 -12 34 50.5 20.7 V G96 – Mt. Lemmon Survey MPS 414283
2012 02 26.42854 13 22 23.34 -12 34 49.1 20.8 V G96 – Mt. Lemmon Survey MPS 414283
2012 03 15.26344 13 14 31.26 -11 01 55.7 20.5 V 691 – Steward Observatory, Kitt Peak-Spacewatch MPS 417188
2012 03 15.28121 13 14 30.56 -11 01 48.3 20.3 V 691 – Steward Observatory, Kitt Peak-Spacewatch MPS 417188
2012 03 15.29898 13 14 29.76 -11 01 41.0 20.3 V 691 – Steward Observatory, Kitt Peak-Spacewatch MPS 417188
2012 03 16.49896 13 13 39.761 -10 52 53.56 20.4 r F51 – Pan-STARRS 1, Haleakala MPS 418413
2012 03 16.51056 13 13 39.242 -10 52 48.31 20.3 r F51 – Pan-STARRS 1, Haleakala MPS 418413
2012 03 16.52312 13 13 38.677 -10 52 42.71 20.2 i F51 – Pan-STARRS 1, Haleakala MPS 418413
2012 03 16.53586 13 13 38.093 -10 52 36.92 20.3 i F51 – Pan-STARRS 1, Haleakala MPS 418413
2012 04 13.39861 12 49 27.037 -06 37 04.57 20.5 g F51 – Pan-STARRS 1, Haleakala MPS 421820
2012 04 13.41025 12 49 26.389 -06 36 57.83 20.6 g F51 – Pan-STARRS 1, Haleakala MPS 421820
2012 04 13.42193 12 49 25.755 -06 36 51.15 19.9 r F51 – Pan-STARRS 1, Haleakala MPS 421820
2012 04 13.43394 12 49 25.095 -06 36 44.07 19.9 r F51 – Pan-STARRS 1, Haleakala MPS 421820
2012 04 14.34105 12 48 38.274 -06 27 59.89 20.3 w F51 – Pan-STARRS 1, Haleakala MPS 421820
2012 04 14.35590 12 48 37.476 -06 27 51.33 20.3 w F51 – Pan-STARRS 1, Haleakala MPS 421820
2012 04 14.37074 12 48 36.675 -06 27 42.83 20.1 w F51 – Pan-STARRS 1, Haleakala MPS 421820
2012 04 14.38557 12 48 35.875 -06 27 34.35 20.1 w F51 – Pan-STARRS 1, Haleakala MPS 421820
2012 04 25.33821 12 40 10.034 -04 48 53.66 20.8 g F51 – Pan-STARRS 1, Haleakala MPS 422785
2012 04 25.34936 12 40 09.555 -04 48 48.14 20.8 g F51 – Pan-STARRS 1, Haleakala MPS 422785
2012 04 26.39828 12 39 28.530 -04 40 14.37 20.3 r F51 – Pan-STARRS 1, Haleakala MPS 422785
